International Virtual Aviation Organisation

Eastern Europe and Northern Asia MCD

 

Карточка аэропорта USTR

Внимание!
Информация на этой странице в стадии наполнения.
Если вы не увидели какой-то информации, или заметили неточность - пожалуйста сообщите нам!
Спасибо!
Команда RU-STAFF
Название аэропортаРощино
Название аэропорта (англ.)Roshschino
Превышение378 ft. (115.2 m.)
Координаты57°10.098', 65°19.002'
Высота перехода700m
Эшелон переходаFL040
Коды ответчика5101-5137
Зона ОрВДТюмень РПИ (USTV)
Данные METARUSTR 110400Z 18005MPS 9999 FEW007 03/01 Q1035 R21/CLRD65 R12/CLRD65 TEMPO FEW004
Проноз погоды (TAF)USTR 110144Z 1103/1203 18006G14MPS 6000 BKN005 BKN020 TEMPO 1103/1106 2100 BR MIFG BKN003 BKN015 BECMG 1106/1107 9999 BKN015 FM112100 27003MPS 9999 BKN020CB TEMPO 1200/1203 3100 -SHRA BR BKN005 BKN015CB
NOTAMshow/hide NOTAM
AWOS   TABLE

Информация о ВПП

ВПП Длина ВПП (м.) Покрытие Курс ВПП Частота ILS
033003Асфальтобетон34108.3
213003Асфальтобетон214110.7
122704Асфальтобетон121 
302704Асфальтобетон301 

Диспетчерские позиции

Позывной Наименование органа УВД Частота
USTR_R_APPТюмень-Круг126.100
USTR_GNDТюмень-Руление119.000
USTR_TWRТюмень-Старт118.200



Спутниковое изображение